Wetbulb
68.32 67.52 64.49 62.28 58.80 61.33 56.35 57.70 62.11 61.54 63.79 67.30 67.16 65.83 64.51 65.76 64.71 61.84 72.10 71.99 73.73 75.63 76.20 76.43 77.02 75.65 75.47 75.63 75.63 76.19 76.47 76.55 76.60 76.47 76.19 76.14 76.01 75.85 75.67 75.11 75.06 75.12 75.10 74.95 74.82 74.65 74.58 74.55 74.37
62.80 62.28 62.44 61.02 56.57 54.83 56.24 60.79 59.90 63.65 67.29 68.77 68.06 68.03 67.26 66.44 70.59 70.37 68.73 72.39 75.23 76.24 76.84 76.83 76.95 76.14 75.60 75.38 75.41 75.87 76.09 76.09 76.12 75.79 75.42 75.22 75.06 74.85 74.38 74.11 74.25 74.27 74.39 74.16 73.92 73.86 73.55 73.69 73.84
62.01 60.87 59.63 58.29 57.00 53.51 56.50 60.81 62.44 66.96 68.34 67.77 67.25 69.40 68.37 67.69 70.50 69.86 71.92 72.53 74.64 76.01 77.13 78.00 76.85 76.24 75.81 75.22 75.46 75.77 75.79 75.66 75.30 75.04 75.02 74.92 74.50 74.16 73.74 73.46 73.27 73.24 73.25 73.09 73.25 73.40 73.76 73.97 74.11
60.32 61.00 59.51 54.88 53.58 54.88 59.72 62.53 64.71 67.01 67.96 68.69 68.47 66.33 70.42 72.59 71.58 73.36 73.09 72.31 72.51 73.52 75.79 76.47 76.82 76.24 76.07 75.35 75.49 75.77 75.49 75.43 75.04 74.47 74.32 74.09 73.95 73.68 73.55 73.04 72.25 72.47 73.05 73.45 73.72 74.09 74.04 74.29 74.43
60.87 59.79 55.37 53.90 54.48 56.73 61.26 64.74 66.71 65.24 65.48 66.43 66.82 64.39 66.96 72.42 73.62 73.57 71.24 71.01 70.70 72.32 74.03 76.18 76.52 76.32 75.91 75.45 75.36 75.76 75.56 75.41 74.90 74.19 74.03 73.95 73.82 73.38 72.85 72.61 72.58 73.25 73.86 74.28 74.61 74.71 74.30 74.16 73.74
57.30 58.21 52.96 52.95 56.01 60.37 62.94 65.98 66.81 65.04 65.72 65.75 64.51 65.05 67.39 72.99 70.85 70.98 71.24 70.97 71.44 72.53 74.09 75.60 76.18 76.47 76.52 76.12 75.79 75.62 75.54 75.24 74.90 74.50 74.30 73.81 73.44 73.02 72.85 72.90 73.32 73.95 74.12 73.76 73.90 73.54 73.18 72.91 72.86
55.64 54.75 52.38 52.73 57.09 59.88 62.33 66.17 65.93 64.61 65.37 64.69 66.64 63.60 68.75 70.49 71.20 71.35 71.19 71.46 71.82 72.68 73.30 73.51 73.80 75.43 75.24 75.34 75.42 75.11 74.79 74.71 74.60 73.84 73.78 74.37 73.85 73.89 73.71 73.99 73.81 73.04 70.93 70.53 70.90 71.53 72.15 72.44 72.11
57.47 55.81 51.74 52.80 52.43 58.08 64.12 65.02 67.01 65.79 64.97 69.22 68.45 62.62 65.05 71.26 72.46 72.71 71.76 71.70 71.54 71.90 72.07 72.58 73.16 72.90 73.00 72.91 74.62 74.81 74.78 74.50 72.82 70.77 71.38 72.22 73.31 73.50 73.44 72.27 72.14 69.23 68.80 69.99 70.74 70.79 71.09 71.26 71.46
57.62 54.26 52.65 53.03 53.17 57.55 65.27 64.47 67.37 68.54 66.99 68.18 68.50 67.65 69.19 73.67 74.05 72.65 70.89 70.29 70.49 70.80 71.72 72.20 72.42 73.01 73.41 73.67 74.51 74.34 73.85 72.59 70.88 70.59 68.76 71.67 70.15 69.34 67.12 68.91 69.52 68.96 68.60 68.71 68.25 68.18 68.09 68.45 70.01
55.63 54.03 53.70 56.47 57.21 58.95 63.81 64.05 66.11 64.34 65.63 66.46 67.53 71.24 71.80 73.21 73.16 70.45 68.66 68.45 69.46 70.15 70.66 71.79 72.84 73.20 73.30 72.46 73.58 72.38 70.67 68.94 68.95 68.71 68.28 67.73 68.57 69.90 67.36 68.31 65.27 66.56 67.08 68.74 68.06 68.44 68.77 69.29 68.74
54.86 53.44 56.56 55.98 57.55 59.60 62.07 63.23 67.04 64.20 63.66 66.09 65.79 69.71 71.28 71.74 71.96 70.23 68.01 68.93 69.96 70.97 70.67 72.60 73.77 74.04 72.21 70.44 70.41 69.61 69.25 68.72 69.49 69.68 70.71 70.88 70.36 70.79 69.81 69.31 69.34 70.04 70.87 69.59 70.43 70.12 69.36 69.21 69.34
51.83 54.74 56.69 55.31 57.60 58.40 59.89 63.99 65.10 65.20 64.67 67.75 67.55 71.06 71.12 70.53 70.76 70.59 67.96 68.87 70.38 70.93 69.90 71.53 72.57 73.53 72.77 70.57 69.96 69.25 68.36 68.71 68.88 69.77 70.36 70.61 68.80 70.01 69.74 69.40 70.04 69.99 69.41 68.99 69.01 68.29 68.74 68.35 68.34
52.50 53.77 55.66 56.04 55.92 56.72 58.59 61.24 64.10 65.44 66.76 68.03 68.73 70.24 70.63 70.03 70.40 71.83 70.03 69.85 71.13 71.10 69.40 69.50 71.29 72.75 72.68 72.55 70.58 70.93 71.30 68.98 69.88 70.99 70.65 69.97 69.55 69.49 69.18 69.15 68.49 68.09 67.98 67.46 66.83 66.65 66.30 65.88 66.09
54.45 54.70 55.16 56.21 56.66 56.14 56.65 59.21 62.72 64.33 67.21 67.35 68.18 69.10 70.97 70.32 69.86 71.75 71.18 70.83 71.35 72.92 70.62 69.64 70.61 72.82 72.63 72.36 72.75 72.23 73.12 71.68 71.05 69.28 68.40 68.48 67.75 67.42 67.15 67.29 67.01 66.69 65.94 65.46 64.80 64.30 63.47 62.99 63.06
55.49 53.16 54.83 55.20 54.77 54.52 58.71 57.26 59.85 64.00 65.59 65.50 67.64 68.56 70.84 71.16 69.91 71.35 72.25 71.88 72.43 73.12 74.33 71.17 71.18 72.37 72.65 72.10 72.45 71.91 71.74 70.26 69.24 68.00 67.19 66.60 65.90 65.26 65.29 65.16 65.04 64.55 63.33 62.96 62.57 61.70 61.22 60.11 59.90
53.19 53.51 50.91 54.21 57.58 57.58 57.35 52.25 58.66 63.37 64.18 64.02 65.80 68.40 70.09 71.40 70.79 71.24 73.07 73.27 73.96 73.88 74.83 73.86 71.08 71.47 72.92 72.46 71.30 70.30 69.50 68.32 67.48 66.94 65.86 64.56 63.64 63.29 63.31 62.93 62.59 62.17 60.65 60.13 59.70 59.10 58.35 58.42 58.47
52.33 48.64 50.43 51.79 57.17 57.32 57.37 53.67 59.17 61.78 63.60 63.72 65.44 67.53 69.58 70.76 71.85 72.31 72.43 73.96 74.51 75.11 74.60 75.44 74.24 71.49 72.54 72.02 70.38 68.85 67.97 66.78 65.91 65.31 64.20 62.73 62.32 61.08 60.60 60.21 60.05 60.28 59.11 58.93 58.68 58.23 58.07 57.21 57.52
48.43 48.69 50.73 50.89 54.25 56.76 55.74 54.92 57.83 60.99 64.19 64.55 65.08 66.70 67.82 69.72 71.26 72.99 73.46 73.82 75.23 75.81 75.88 75.67 75.07 73.38 73.41 70.52 69.03 67.21 66.25 65.70 65.24 63.33 61.78 61.45 60.65 59.24 59.02 58.99 58.95 59.00 58.20 57.95 57.87 57.65 57.68 57.10 57.01
50.91 50.38 49.84 52.43 54.01 52.88 53.23 53.67 55.28 56.72 59.85 60.53 62.30 64.49 67.17 68.87 71.39 73.36 73.99 74.22 74.49 72.74 72.95 72.59 71.93 71.29 71.32 69.89 67.25 66.10 65.19 64.47 63.33 62.49 60.57 59.67 58.89 58.72 58.88 58.30 58.46 58.36 57.53 57.42 57.79 56.42 54.80 53.88 55.48
50.08 49.51 50.12 52.20 53.71 53.78 53.03 52.88 54.86 56.59 58.13 60.63 62.27 64.25 66.25 68.72 70.35 69.99 69.72 71.57 70.87 70.40 70.12 70.43 70.52 70.23 70.41 70.77 70.44 68.76 66.29 64.15 62.76 61.25 59.36 57.45 57.09 57.93 57.57 57.81 57.66 57.76 56.81 57.33 54.99 52.13 50.28 52.13 54.22
50.47 49.36 49.82 50.03 52.98 54.05 52.76 51.58 53.93 56.28 61.14 63.55 63.85 64.63 65.75 65.58 66.53 67.37 66.22 67.19 66.92 67.28 68.09 68.58 69.25 69.09 68.80 68.30 67.00 65.51 64.72 64.15 62.24 59.97 56.84 56.78 56.58 56.79 57.41 57.69 57.46 56.93 55.98 54.49 52.48 52.85 53.09 50.04 52.02
48.89 52.32 51.38 50.94 50.41 47.27 53.16 46.42 52.96 55.33 57.31 60.20 62.02 62.96 62.70 63.51 64.35 65.26 65.56 64.75 64.31 64.17 65.21 65.88 66.13 66.17 66.22 66.70 66.43 66.83 65.19 64.46 56.95 56.73 54.81 55.49 56.80 56.10 56.23 57.18 57.24 55.47 54.30 53.50 53.83 54.38 52.33 50.36 47.94
50.67 52.41 52.25 52.03 50.95 50.83 50.20 47.59 52.07 54.92 54.75 57.50 60.86 61.51 60.99 61.34 63.68 63.45 62.89 62.21 61.76 62.42 62.93 63.39 63.74 63.76 64.29 64.52 63.77 61.77 58.45 59.22 57.62 55.23 54.85 54.39 54.66 56.61 56.45 57.04 56.77 56.22 54.88 55.42 54.22 53.33 52.82 50.95 48.72
53.45 52.58 52.70 52.79 51.38 46.07 49.13 48.19 49.20 52.52 54.72 57.81 61.18 60.99 59.91 59.87 60.09 60.37 60.87 61.12 60.77 61.52 61.81 62.17 61.66 60.74 60.07 58.85 58.47 57.81 57.53 55.36 56.29 54.35 53.13 53.80 55.85 55.94 56.35 56.34 56.35 56.66 55.79 55.91 54.17 54.17 53.62 52.18 51.53
53.00 52.21 46.47 44.66 44.94 44.44 50.44 47.67 52.13 55.93 57.23 59.57 59.81 59.88 59.55 59.72 60.05 59.79 59.72 59.98 60.44 60.52 60.90 60.13 59.30 57.49 56.92 56.84 57.26 56.83 56.02 55.70 54.44 54.58 54.70 54.87 54.34 54.68 55.71 56.38 55.82 55.41 55.89 55.81 55.53 54.41 53.75 53.47 52.78
51.65 51.91 47.40 41.62 42.98 45.30 49.78 45.68 51.33 57.58 60.06 60.87 60.17 59.84 59.04 58.86 60.31 59.81 60.07 60.10 59.93 59.85 59.21 58.28 57.22 56.44 56.70 56.62 56.04 55.77 55.65 54.59 54.25 52.96 54.31 53.93 53.93 54.35 56.03 55.80 55.89 55.58 54.24 55.78 56.15 54.78 53.83 54.37 54.33
51.22 49.19 53.47 49.27 48.80 45.64 47.77 51.29 54.99 58.34 58.70 59.46 60.08 59.76 59.03 58.41 59.28 58.82 59.12 59.68 59.59 58.33 57.12 56.58 56.12 55.63 55.39 54.28 52.52 52.48 53.68 53.99 52.08 54.59 54.55 53.48 54.57 53.86 54.43 55.15 55.26 55.52 53.56 53.62 55.57 54.88 53.62 54.24 53.89
53.17 54.63 48.09 49.60 42.93 41.34 46.00 47.16 50.16 54.79 56.92 59.12 59.79 60.05 59.65 58.85 58.85 58.95 59.30 58.42 57.72 56.86 55.91 55.55 55.43 54.43 53.80 53.81 54.05 54.06 53.90 54.59 54.00 53.76 53.34 53.47 53.98 54.36 54.18 53.80 54.36 55.08 55.33 54.48 53.34 53.82 54.47 54.03 52.99
50.34 50.08 51.13 52.37 50.21 44.49 43.20 47.56 55.54 55.78 58.02 58.68 60.05 61.50 60.43 59.40 58.94 58.93 58.30 57.67 56.71 56.12 55.94 55.13 54.38 53.55 52.97 53.29 53.58 53.58 53.57 53.37 53.22 52.56 52.56 52.60 52.64 52.62 52.73 52.57 53.04 53.36 54.31 54.97 54.37 53.50 54.34 53.81 53.93
53.07 51.81 52.47 47.59 46.91 48.59 47.87 48.06 57.23 58.61 59.28 60.12 60.30 61.60 61.15 60.72 59.53 58.80 57.88 57.04 56.46 55.25 54.37 53.62 53.48 53.59 53.17 53.20 52.27 52.89 53.00 52.92 52.63 52.36 52.67 52.75 51.94 52.49 52.10 51.81 52.77 53.70 53.45 53.94 53.30 52.69 53.14 52.13 52.53
MSLP
1013.64 1012.91 1012.42 1011.36 1009.42 1006.40 1005.84 1006.80 1007.37 1007.97 1008.56 1009.42 1009.51 1009.80 1010.33 1010.98 1010.80 1011.86 1013.41 1014.04 1013.95 1014.43 1015.50 1016.44 1017.16 1017.43 1017.62 1017.73 1017.80 1017.93 1018.09 1018.13 1018.22 1018.21 1018.15 1018.20 1018.32 1018.42 1018.40 1018.41 1018.49 1018.52 1018.42 1018.39 1018.39 1018.37 1018.33 1018.30 1018.22
1012.63 1012.60 1011.66 1009.35 1007.25 1004.39 1005.41 1006.88 1007.40 1008.07 1008.98 1009.29 1009.69 1009.95 1010.16 1010.81 1011.65 1012.55 1013.13 1014.03 1014.06 1014.65 1015.41 1016.09 1017.22 1017.44 1017.67 1017.85 1017.91 1017.93 1017.97 1017.99 1018.10 1018.17 1018.21 1018.33 1018.41 1018.42 1018.48 1018.54 1018.55 1018.54 1018.51 1018.36 1018.31 1018.29 1018.29 1018.23 1018.15
1012.62 1012.10 1009.81 1007.54 1005.49 1004.47 1005.29 1006.68 1007.25 1008.77 1009.44 1009.14 1009.34 1009.98 1010.35 1011.10 1012.14 1012.31 1013.09 1014.00 1014.35 1014.71 1015.24 1016.35 1017.15 1017.41 1017.60 1017.81 1017.87 1017.91 1018.00 1018.06 1018.14 1018.17 1018.24 1018.29 1018.47 1018.55 1018.55 1018.52 1018.49 1018.47 1018.45 1018.41 1018.28 1018.20 1018.16 1018.12 1018.02
1011.75 1010.84 1009.28 1007.00 1005.02 1006.19 1006.30 1006.83 1007.60 1008.50 1009.04 1009.13 1009.14 1009.73 1010.94 1011.51 1012.09 1012.31 1013.58 1013.97 1014.29 1014.34 1015.04 1016.72 1017.13 1017.43 1017.66 1017.83 1017.86 1017.95 1017.98 1018.04 1018.14 1018.25 1018.35 1018.42 1018.48 1018.53 1018.52 1018.52 1018.47 1018.39 1018.37 1018.31 1018.22 1018.17 1018.10 1018.06 1017.94
1011.02 1009.08 1006.85 1005.86 1005.72 1006.50 1007.03 1007.42 1007.54 1007.74 1008.42 1008.70 1009.13 1009.83 1010.62 1011.95 1012.59 1013.19 1013.77 1013.92 1013.95 1014.29 1014.79 1016.35 1017.28 1017.57 1017.69 1017.84 1017.90 1017.97 1018.04 1018.14 1018.28 1018.29 1018.28 1018.26 1018.36 1018.39 1018.37 1018.28 1018.22 1018.25 1018.23 1018.22 1018.16 1018.10 1018.05 1017.95 1017.85
1009.11 1008.18 1005.96 1004.75 1005.73 1006.62 1007.18 1007.55 1007.51 1007.71 1008.46 1008.84 1009.11 1009.68 1010.57 1011.94 1012.68 1013.47 1013.76 1013.77 1013.93 1014.58 1014.97 1016.25 1017.36 1017.47 1017.69 1017.89 1017.96 1017.99 1018.01 1018.09 1018.10 1018.21 1018.18 1018.18 1018.31 1018.34 1018.32 1018.32 1018.33 1018.30 1018.30 1018.30 1018.26 1018.18 1018.10 1018.00 1017.90
1008.63 1006.95 1005.21 1005.31 1005.74 1006.35 1007.27 1007.76 1007.56 1007.60 1008.10 1008.68 1008.75 1009.30 1010.58 1011.57 1012.40 1013.20 1013.49 1013.97 1014.25 1014.75 1015.01 1015.81 1016.42 1017.13 1017.70 1017.82 1017.90 1017.97 1017.98 1018.05 1018.04 1018.17 1018.13 1018.19 1018.27 1018.29 1018.31 1018.30 1018.26 1018.24 1018.20 1018.14 1018.09 1018.04 1017.92 1017.82 1017.73
1008.60 1007.14 1005.65 1005.42 1005.40 1006.15 1007.49 1007.77 1007.70 1007.80 1008.05 1008.90 1009.09 1008.91 1009.82 1011.03 1012.44 1013.12 1013.58 1014.20 1014.24 1014.65 1014.77 1015.31 1015.82 1016.22 1016.72 1017.14 1017.82 1017.94 1017.89 1018.01 1018.12 1018.16 1018.18 1018.20 1018.30 1018.30 1018.30 1018.26 1018.23 1018.35 1018.38 1018.34 1018.29 1018.18 1018.04 1017.87 1017.68
1008.99 1006.76 1004.96 1005.23 1005.55 1006.06 1007.43 1007.43 1008.01 1008.26 1008.29 1008.92 1009.21 1009.47 1009.83 1011.17 1012.34 1012.82 1013.33 1013.63 1014.05 1014.48 1014.73 1014.90 1015.16 1015.56 1015.72 1016.04 1017.21 1017.90 1017.99 1018.13 1018.22 1018.21 1018.28 1018.06 1017.15 1017.65 1017.86 1018.24 1018.52 1018.62 1018.58 1018.42 1018.23 1018.06 1017.88 1017.67 1017.20
1008.04 1006.02 1005.25 1005.80 1006.18 1006.16 1006.89 1007.09 1007.86 1008.33 1008.12 1008.55 1008.97 1010.03 1010.44 1011.58 1012.13 1012.39 1012.68 1012.92 1013.44 1014.03 1014.39 1014.62 1014.88 1015.31 1015.51 1015.95 1016.76 1016.92 1017.21 1017.27 1017.39 1017.43 1017.75 1017.26 1017.63 1017.80 1017.87 1018.17 1018.45 1018.37 1018.24 1017.99 1017.75 1017.54 1017.35 1016.95 1015.62
1007.57 1006.05 1006.07 1006.49 1006.70 1006.70 1006.79 1007.05 1007.54 1007.52 1007.39 1007.52 1008.14 1009.47 1010.61 1011.26 1011.83 1011.97 1012.14 1012.34 1012.89 1013.54 1014.09 1014.51 1015.26 1015.76 1015.47 1015.74 1016.39 1016.65 1016.97 1017.38 1017.70 1017.87 1017.90 1018.11 1017.84 1017.84 1017.56 1017.48 1017.25 1017.42 1017.35 1016.91 1016.86 1016.67 1016.15 1015.85 1016.08
1007.55 1006.90 1006.86 1006.62 1007.08 1007.09 1006.83 1006.97 1007.27 1007.15 1006.66 1007.13 1007.81 1008.95 1010.30 1010.79 1011.22 1011.46 1011.69 1012.17 1012.77 1013.39 1013.84 1014.57 1015.12 1015.99 1016.02 1015.94 1016.58 1016.80 1016.95 1017.47 1017.54 1018.01 1018.52 1018.47 1017.95 1018.08 1018.07 1017.71 1017.73 1017.45 1017.27 1017.43 1016.99 1016.67 1016.49 1016.61 1016.30
1007.67 1006.85 1006.97 1007.05 1007.13 1007.19 1007.05 1006.87 1006.79 1006.80 1006.79 1007.69 1007.76 1008.71 1009.85 1010.37 1010.81 1011.22 1011.61 1012.11 1012.70 1013.27 1013.86 1014.49 1015.18 1016.15 1016.66 1017.05 1016.79 1017.01 1017.17 1017.46 1018.07 1018.34 1018.88 1018.82 1018.62 1018.82 1018.62 1018.51 1018.38 1018.14 1017.87 1017.50 1017.22 1016.93 1016.72 1016.62 1016.10
1007.20 1007.15 1006.96 1006.91 1006.76 1007.05 1007.07 1006.75 1006.93 1006.30 1006.74 1007.41 1007.84 1008.46 1009.24 1009.86 1010.38 1011.08 1011.59 1012.18 1012.77 1013.26 1013.73 1014.60 1015.44 1016.32 1016.72 1017.17 1017.47 1017.52 1017.91 1018.21 1018.34 1018.86 1019.42 1019.39 1019.37 1019.73 1019.13 1018.77 1018.57 1018.39 1018.38 1018.11 1017.84 1017.39 1017.26 1016.73 1016.23
1007.58 1007.12 1006.50 1006.58 1006.78 1006.84 1006.94 1006.73 1006.33 1006.06 1006.25 1006.88 1007.52 1008.21 1008.86 1009.36 1009.98 1010.65 1011.18 1011.88 1012.58 1013.31 1014.04 1014.75 1015.38 1016.10 1016.74 1017.10 1017.46 1017.80 1017.91 1018.11 1018.73 1019.26 1019.92 1019.95 1019.99 1020.16 1019.97 1019.11 1018.81 1018.79 1019.11 1018.59 1018.08 1017.69 1017.23 1016.69 1016.17
1007.24 1006.72 1005.55 1006.09 1006.68 1007.22 1006.85 1004.86 1005.21 1005.81 1006.32 1006.51 1006.97 1007.71 1008.49 1008.96 1009.52 1010.24 1010.84 1011.54 1012.36 1013.22 1013.95 1014.95 1015.28 1015.72 1016.72 1016.91 1017.50 1017.57 1018.30 1018.62 1019.11 1019.53 1020.03 1020.39 1020.36 1020.33 1020.00 1019.37 1019.33 1019.48 1019.40 1018.65 1018.22 1017.82 1017.26 1016.76 1016.18
1006.70 1005.45 1005.31 1005.73 1006.26 1006.52 1006.46 1004.42 1004.85 1005.68 1006.29 1006.25 1006.57 1007.12 1007.88 1008.53 1009.29 1009.81 1010.50 1011.32 1012.15 1012.96 1013.78 1014.42 1015.20 1015.46 1016.36 1017.28 1017.56 1018.23 1018.94 1018.93 1019.39 1019.72 1020.15 1020.66 1020.34 1020.50 1020.60 1019.75 1019.77 1020.12 1019.37 1018.66 1018.21 1017.84 1017.70 1016.95 1016.32
1005.48 1005.51 1005.31 1005.26 1006.13 1005.97 1005.73 1005.10 1004.84 1005.76 1005.99 1006.12 1006.17 1006.65 1007.18 1007.91 1008.61 1009.78 1010.81 1011.31 1011.82 1012.59 1013.67 1014.14 1014.84 1015.62 1016.52 1017.27 1017.56 1017.96 1018.54 1019.04 1019.43 1019.74 1020.37 1020.61 1020.27 1020.43 1020.86 1020.18 1019.99 1019.94 1019.21 1018.79 1018.57 1018.45 1018.02 1017.37 1016.31
1006.58 1005.86 1005.38 1005.53 1006.22 1006.29 1005.53 1005.32 1004.99 1005.43 1005.89 1005.76 1005.77 1006.20 1007.07 1007.82 1008.67 1009.49 1010.79 1011.51 1012.10 1013.07 1014.18 1014.93 1015.74 1016.55 1016.96 1017.27 1017.17 1017.61 1017.76 1018.72 1019.24 1019.52 1020.25 1020.58 1020.73 1020.61 1020.45 1020.24 1019.93 1019.70 1019.48 1019.29 1018.91 1018.61 1018.27 1017.94 1017.28
1007.17 1006.54 1005.95 1005.80 1006.55 1006.36 1005.38 1005.40 1005.25 1006.34 1006.34 1006.55 1006.50 1006.55 1007.05 1008.07 1008.98 1010.20 1011.49 1012.17 1013.07 1014.03 1014.83 1015.70 1016.21 1016.83 1017.29 1017.52 1017.55 1017.73 1018.31 1018.57 1019.15 1019.45 1020.08 1020.23 1020.67 1020.77 1020.33 1020.60 1020.08 1019.95 1019.62 1019.04 1019.20 1019.58 1018.79 1018.16 1017.30
1007.06 1006.52 1006.16 1006.03 1006.19 1006.27 1005.92 1005.40 1005.72 1006.84 1007.25 1007.79 1008.60 1009.05 1009.44 1009.96 1010.22 1010.91 1012.45 1013.43 1014.22 1014.89 1015.62 1016.29 1016.77 1017.27 1017.68 1017.80 1018.21 1018.52 1018.68 1018.64 1018.53 1019.09 1019.76 1020.06 1020.01 1020.51 1020.66 1020.50 1020.13 1020.03 1019.74 1019.38 1019.62 1019.18 1018.57 1018.42 1017.73
1006.46 1006.73 1006.47 1006.21 1006.19 1005.22 1005.75 1004.50 1005.35 1006.42 1007.68 1008.63 1009.37 1010.09 1011.01 1011.32 1011.17 1011.60 1013.20 1014.45 1015.35 1016.11 1016.80 1017.31 1017.81 1018.07 1018.18 1018.35 1018.36 1018.07 1018.00 1018.00 1019.65 1019.59 1020.33 1020.22 1020.10 1020.34 1020.56 1020.19 1020.11 1020.03 1019.79 1019.77 1019.28 1018.74 1018.98 1018.91 1018.05
1006.37 1007.02 1006.65 1006.43 1005.95 1005.34 1005.52 1005.69 1005.20 1006.52 1007.35 1008.86 1010.03 1011.10 1012.09 1012.66 1012.75 1013.36 1014.31 1015.49 1016.47 1017.05 1017.66 1018.20 1018.54 1018.81 1019.05 1019.12 1019.22 1019.47 1019.72 1020.08 1020.20 1020.17 1020.06 1019.75 1020.12 1020.14 1020.29 1020.29 1020.11 1019.62 1019.45 1019.34 1019.01 1018.83 1018.69 1018.76 1018.27
1007.26 1007.08 1006.70 1006.49 1005.69 1005.56 1005.08 1005.88 1004.52 1005.69 1007.74 1008.86 1010.25 1011.72 1012.85 1013.46 1014.17 1014.92 1015.64 1016.32 1016.94 1017.56 1018.11 1018.75 1019.34 1019.93 1020.34 1020.51 1020.49 1020.37 1020.28 1020.40 1020.52 1020.43 1020.05 1020.00 1019.30 1019.73 1020.06 1020.35 1020.04 1019.79 1019.28 1018.97 1018.69 1018.60 1018.29 1018.14 1017.80
1006.86 1006.36 1005.61 1005.64 1005.10 1004.76 1005.68 1006.15 1005.80 1007.40 1008.65 1009.73 1010.74 1012.04 1013.23 1013.93 1014.49 1015.21 1015.85 1016.48 1017.15 1017.87 1018.53 1019.28 1019.92 1020.42 1020.79 1020.79 1020.78 1020.82 1020.88 1021.01 1021.00 1020.17 1019.85 1020.16 1019.69 1019.68 1019.92 1019.97 1019.87 1019.71 1019.18 1018.65 1018.38 1018.39 1017.93 1017.45 1017.18
1005.79 1005.45 1004.57 1004.74 1004.28 1004.60 1006.12 1005.78 1006.22 1008.04 1009.46 1010.58 1011.72 1012.63 1013.65 1014.34 1014.82 1015.49 1016.20 1016.87 1017.53 1018.40 1019.04 1019.52 1020.02 1020.35 1020.72 1020.93 1021.13 1021.26 1021.17 1021.02 1020.77 1020.95 1020.39 1020.38 1020.28 1019.88 1019.97 1019.67 1019.63 1019.54 1019.43 1018.59 1018.11 1017.70 1017.38 1017.06 1016.53
1005.44 1005.68 1005.34 1005.30 1005.54 1005.28 1004.80 1005.93 1007.40 1008.37 1009.35 1010.41 1011.25 1012.37 1013.49 1014.63 1015.30 1016.05 1016.90 1017.46 1018.06 1018.93 1019.57 1019.87 1020.17 1020.56 1020.99 1021.43 1021.77 1021.86 1021.79 1021.70 1021.54 1020.82 1020.89 1020.40 1020.33 1019.94 1019.58 1019.63 1019.24 1019.02 1019.27 1018.95 1018.13 1017.23 1017.06 1016.69 1016.28
1005.34 1005.07 1005.82 1005.81 1005.32 1005.25 1004.51 1005.27 1005.42 1007.22 1008.16 1009.40 1010.47 1011.62 1013.09 1014.53 1015.43 1016.32 1017.03 1018.01 1018.68 1019.45 1019.99 1020.32 1020.61 1021.04 1021.46 1021.47 1021.66 1021.72 1021.69 1021.54 1021.39 1020.99 1020.92 1020.78 1020.31 1020.09 1019.83 1019.49 1019.13 1018.70 1018.49 1018.49 1018.43 1017.43 1016.81 1016.52 1016.04
1005.40 1005.13 1005.47 1005.64 1005.55 1005.16 1005.02 1004.55 1005.14 1006.01 1007.31 1008.31 1009.35 1010.69 1012.44 1013.88 1015.19 1016.24 1017.30 1018.29 1018.97 1019.43 1019.85 1020.46 1020.77 1021.12 1021.46 1021.73 1021.80 1021.60 1021.57 1021.53 1021.46 1021.16 1020.98 1020.74 1020.49 1020.14 1019.58 1019.31 1018.97 1018.54 1018.14 1017.82 1017.72 1017.29 1016.34 1015.83 1015.39
1004.27 1004.29 1004.70 1005.06 1005.41 1005.77 1005.71 1005.45 1006.26 1006.29 1007.16 1008.06 1008.92 1010.42 1012.04 1013.53 1014.86 1016.20 1017.45 1018.37 1018.94 1019.53 1020.13 1020.77 1021.14 1021.30 1021.81 1021.78 1022.06 1021.61 1021.50 1021.56 1021.46 1021.27 1021.20 1020.75 1020.48 1019.91 1019.54 1019.16 1018.83 1018.30 1018.01 1017.72 1017.20 1016.71 1016.16 1015.58 1014.92
Wind_Speed
10 8 4 6 8 9 7 9 5 8 7 3 5 1 2 3 7 7 9 7 13 14 14 13 10 10 10 11 11 12 11 11 11 11 11 10 9 7 7 6 5 5 5 4 4 4 3 3 3
4 4 6 4 10 7 9 9 6 7 4 5 8 6 4 6 6 12 12 12 13 14 13 14 12 12 12 12 12 11 12 12 11 10 10 9 8 7 6 5 4 4 3 2 2 2 2 2 2
7 7 6 5 5 8 9 6 9 10 5 6 5 2 3 5 6 13 15 14 13 13 13 14 13 13 13 13 12 11 10 10 10 10 10 9 7 6 5 4 2 2 1 2 2 2 3 3 3
6 7 6 9 1 7 5 8 8 11 7 3 5 7 6 6 10 8 15 15 13 13 13 15 12 12 12 12 11 11 10 10 10 10 8 8 7 6 5 3 2 1 1 1 2 3 4 5 5
7 5 7 6 4 5 5 8 9 8 6 7 3 7 6 8 6 14 14 12 11 11 13 14 10 11 12 12 12 10 10 9 8 9 9 8 7 6 5 4 3 2 2 3 4 5 5 5 6
7 5 8 7 7 6 5 9 9 7 7 7 5 9 8 12 12 13 13 11 10 10 11 13 11 10 10 10 9 9 9 9 9 8 8 7 7 6 5 4 3 2 3 4 4 5 6 6 6
12 7 4 3 9 9 9 10 10 7 9 8 8 9 8 12 13 13 12 10 9 11 10 11 13 11 9 9 9 9 8 7 7 6 5 6 6 5 4 3 3 3 2 2 2 4 5 6 6
7 8 6 4 5 13 10 12 10 7 9 7 6 6 10 13 14 12 11 11 10 10 10 11 10 13 12 12 9 8 8 6 5 4 3 5 5 4 4 5 3 3 4 6 7 7 8 8 8
4 8 8 5 7 10 13 11 10 2 7 8 8 2 5 18 15 12 11 11 10 9 10 10 11 11 10 11 10 8 7 5 5 6 4 7 5 6 6 11 7 6 6 7 6 7 8 10 14
9 10 5 5 5 3 14 12 13 9 11 10 12 6 12 17 15 13 13 12 13 12 12 11 10 10 9 7 10 8 8 7 5 5 4 4 2 3 7 1 1 4 5 10 8 8 10 15 10
7 11 7 6 3 2 9 12 14 13 12 13 14 12 16 17 15 14 14 12 12 11 10 11 9 8 9 8 7 5 5 5 4 4 2 3 2 1 3 4 4 5 5 8 8 10 9 12 11
9 8 5 2 4 3 6 10 13 16 5 4 7 14 17 18 16 15 13 13 12 12 11 11 12 9 7 5 5 5 4 3 3 4 3 3 4 3 5 5 7 6 6 9 9 8 11 13 14
11 7 6 7 7 9 7 11 12 17 13 2 10 14 16 17 16 14 12 12 11 12 12 12 11 9 7 4 4 2 1 3 4 1 6 6 6 6 6 7 7 7 8 9 10 10 10 12 14
5 6 8 6 9 6 11 11 13 14 14 11 12 14 17 18 17 14 14 13 12 12 12 11 10 9 8 6 2 2 1 3 1 5 6 7 6 6 7 7 8 8 9 10 11 11 11 12 14
5 9 11 7 4 6 10 9 16 10 13 16 13 13 16 18 18 17 16 16 15 12 11 11 10 10 8 7 6 3 2 4 4 4 7 7 7 8 8 8 8 8 10 13 11 12 12 12 13
11 9 14 10 9 4 13 15 17 14 10 15 15 14 15 18 19 18 16 16 14 12 12 9 9 11 9 6 4 3 5 5 4 4 5 8 8 9 8 8 8 10 10 10 10 11 12 12 13
10 13 13 10 6 8 12 8 10 10 12 14 15 16 16 16 18 18 17 14 13 12 11 12 11 11 11 8 6 6 7 5 5 5 5 8 8 10 10 8 8 10 10 10 10 10 12 13 13
12 14 8 9 9 9 14 12 8 8 12 15 16 15 16 17 16 14 13 12 12 11 11 11 9 9 9 8 8 7 7 5 5 5 5 7 6 8 9 8 8 9 9 10 10 13 12 13 13
8 8 9 9 4 6 10 11 11 5 11 14 16 15 13 11 8 10 11 11 10 5 8 9 9 8 8 7 8 8 7 6 5 5 6 7 8 8 8 8 9 9 10 11 11 11 13 11 12
10 12 12 7 3 8 8 12 4 1 6 8 11 10 9 8 8 4 5 7 8 8 7 8 9 11 8 5 3 3 4 5 5 4 3 4 6 9 8 9 9 10 10 11 10 10 8 10 9
12 13 12 12 9 7 6 12 10 5 4 6 6 4 6 4 6 5 5 3 4 5 6 7 9 10 6 9 8 6 6 5 5 3 4 3 6 6 8 9 9 10 9 9 9 9 11 10 10
12 13 12 11 11 11 8 8 12 9 6 3 4 6 5 7 1 4 6 5 6 7 7 8 8 9 8 8 6 8 5 4 6 2 4 4 6 6 7 9 9 9 7 9 9 8 10 9 9
2 2 11 14 14 9 12 9 9 10 10 5 7 8 9 10 10 9 9 8 9 8 8 8 9 9 7 5 4 3 5 2 2 4 3 4 1 5 7 9 9 9 7 9 9 9 9 8 8
3 5 8 9 10 12 11 5 7 7 2 4 8 10 9 9 9 9 9 9 10 11 11 10 10 10 9 8 8 8 7 5 3 5 4 3 4 4 5 9 9 9 9 9 9 10 11 9 8
10 10 9 10 11 10 6 6 6 7 4 2 4 6 8 7 8 9 9 10 10 10 10 9 8 8 7 7 7 7 6 6 5 5 6 7 5 5 6 9 9 9 11 10 10 11 10 9 9
16 13 8 9 7 6 7 7 8 5 5 4 4 4 5 5 8 9 10 10 10 9 9 9 8 8 7 7 7 7 7 4 5 5 6 6 7 7 9 9 9 9 12 11 9 9 8 9 8
9 11 6 8 4 9 7 8 6 8 7 7 7 5 6 7 8 9 9 9 9 9 8 7 7 7 8 7 6 5 5 7 5 7 7 7 8 9 9 11 11 9 9 12 13 7 10 10 9
12 9 8 8 10 12 9 5 4 13 12 11 10 9 9 9 10 10 10 9 8 8 7 7 7 8 7 5 5 5 5 6 7 7 9 10 10 11 10 11 11 10 9 8 10 10 9 10 8
10 12 8 7 5 8 10 5 5 8 11 12 12 12 12 12 11 11 10 9 8 7 7 7 6 6 5 6 4 5 6 7 7 7 9 11 11 11 11 11 11 11 10 10 9 10 12 10 10
6 12 16 11 12 7 9 8 2 8 10 9 10 11 11 11 12 11 10 10 8 7 7 7 6 4 4 6 5 5 5 6 6 8 10 11 10 10 10 10 10 11 10 11 12 12 13 13 11
Wind_Direction
190 212 244 231 241 246 111 94 86 125 135 119 159 119 38 28 345 41 127 132 136 138 133 148 140 145 142 138 131 127 126 126 127 133 139 140 137 131 124 119 105 93 86 76 61 50 40 25 13
185 197 224 276 258 214 95 106 152 77 76 140 141 156 137 69 53 121 135 144 143 140 147 143 141 145 146 148 145 143 146 146 149 150 142 137 142 144 141 127 106 88 66 57 41 20 353 331 312
218 240 264 260 271 29 99 140 109 108 123 155 141 318 35 65 132 141 109 147 144 148 148 126 147 152 156 160 158 157 155 150 151 150 152 153 151 146 143 143 133 102 42 352 341 319 305 298 299
206 196 222 253 68 75 84 124 133 136 136 166 126 107 108 67 141 122 140 149 154 150 148 136 154 157 160 162 159 159 156 158 162 161 156 156 159 164 169 173 177 191 235 268 282 291 296 302 301
225 248 244 235 96 117 135 146 156 140 113 144 163 116 98 114 103 126 141 158 150 145 135 149 154 159 161 166 165 161 158 156 156 157 165 167 172 180 188 198 214 239 262 267 276 287 297 298 297
239 273 235 196 110 130 136 159 168 140 128 115 165 139 121 117 138 140 153 158 150 143 144 135 157 162 169 169 164 159 157 159 164 173 178 180 192 199 204 215 240 281 312 314 308 313 308 307 302
266 249 305 84 116 147 142 172 186 153 157 167 134 149 114 159 137 152 156 139 149 151 153 152 162 160 170 166 166 167 163 168 170 185 193 200 205 206 214 237 257 269 293 313 305 308 296 288 285
273 268 206 175 172 111 143 176 186 181 146 114 189 159 166 157 149 146 139 161 166 163 160 162 167 170 176 167 172 175 170 162 159 158 169 194 193 201 201 224 185 317 347 346 346 338 331 314 295
262 243 211 139 200 125 155 176 193 138 157 190 182 63 101 138 157 157 163 170 166 175 168 176 178 167 186 163 158 176 169 171 169 160 126 188 172 175 177 59 34 12 355 338 329 324 315 300 269
242 254 119 93 82 134 174 201 173 189 182 189 178 129 145 152 163 170 179 182 181 178 180 179 183 176 181 166 152 182 159 178 171 157 162 221 90 16 330 337 241 258 278 271 250 258 262 254 283
186 250 121 156 66 349 174 204 177 213 195 200 190 154 160 168 173 186 190 185 180 176 180 185 182 183 187 175 170 169 167 152 156 152 212 68 323 40 276 299 274 316 258 295 308 302 298 316 310
235 240 217 84 164 223 193 202 198 216 182 241 190 154 173 181 183 192 192 183 184 182 184 185 174 181 209 174 192 159 172 166 175 74 350 8 293 329 328 310 321 303 324 318 304 307 317 300 298
234 223 224 247 252 253 252 218 211 214 224 212 171 165 183 191 189 198 192 193 190 189 187 192 179 179 180 224 173 214 233 184 60 40 45 0 341 350 328 338 315 319 325 316 314 312 314 304 298
175 246 250 260 262 234 223 211 213 224 217 207 204 193 193 197 195 195 195 200 201 202 193 196 188 173 186 208 199 143 64 95 53 49 36 41 1 359 334 323 332 328 333 328 318 319 311 306 302
239 247 210 216 207 183 216 200 221 213 214 212 210 204 207 204 196 199 198 203 202 203 206 196 195 181 203 185 187 137 98 88 70 74 50 34 26 6 340 341 331 333 331 315 315 312 307 301 302
235 227 211 143 180 135 209 200 212 204 198 221 214 206 212 211 206 200 207 205 205 211 199 199 204 182 188 177 170 132 111 107 91 68 53 19 19 13 341 336 331 342 314 313 312 312 310 309 306
203 212 224 142 206 154 221 250 102 186 211 228 219 215 210 219 211 205 209 209 209 207 223 197 206 210 181 155 130 119 122 110 95 75 49 17 13 0 343 331 332 329 311 313 314 319 317 312 308
207 234 192 189 159 199 194 251 168 183 211 224 225 222 222 217 218 206 216 222 208 216 209 217 194 209 172 157 148 135 135 124 107 76 45 16 9 0 339 323 333 319 317 318 329 316 316 309 311
290 258 234 189 120 252 238 237 243 201 227 233 232 227 226 246 231 207 201 227 214 206 196 201 180 166 171 171 171 167 153 138 115 74 34 6 0 356 346 333 331 327 321 323 317 326 326 322 320
228 232 224 214 172 236 222 237 174 289 271 292 287 281 255 223 205 170 217 208 194 190 181 175 166 168 165 152 172 139 156 115 105 72 55 40 0 357 354 337 333 342 325 320 351 319 313 305 336
225 231 230 239 172 229 246 237 172 123 99 84 67 38 32 342 294 198 177 155 146 152 152 158 153 148 138 140 140 140 140 160 174 124 50 33 37 354 349 340 336 338 328 341 321 321 326 319 320
225 211 235 224 223 236 190 269 161 138 132 111 81 65 36 11 178 109 111 94 77 83 96 114 128 134 140 150 168 189 211 236 32 44 63 7 42 1 343 346 344 333 338 322 323 335 322 307 307
78 217 223 217 226 260 193 247 120 156 159 118 78 64 51 49 43 65 71 83 95 112 112 112 111 104 102 97 71 42 37 71 91 33 59 52 23 354 360 348 341 342 335 326 326 318 316 304 296
122 197 188 211 218 224 227 249 233 143 92 120 85 71 61 64 79 86 94 106 109 111 107 101 88 64 49 48 50 57 62 42 32 35 19 313 10 331 19 337 347 337 326 338 330 319 312 301 293
208 202 192 207 204 240 132 222 53 112 129 37 49 56 50 57 86 104 113 112 113 108 103 94 84 78 72 69 64 69 67 51 57 3 19 336 339 340 358 330 338 332 327 333 334 317 310 310 316
204 220 255 243 207 218 145 233 123 125 129 117 103 99 99 91 103 110 112 115 113 100 94 96 96 87 76 67 65 58 28 39 29 29 8 327 317 324 335 322 319 323 325 320 325 310 330 334 322
174 222 295 261 264 282 255 124 169 165 170 175 170 158 128 125 123 127 126 126 118 100 89 90 86 82 70 70 66 58 38 23 4 10 337 339 314 333 324 310 312 316 315 314 320 324 321 338 329
258 174 193 213 244 240 228 239 276 184 190 184 181 177 153 149 150 146 141 124 114 104 100 83 71 70 81 69 51 42 36 8 358 354 342 328 322 316 306 307 306 303 303 308 318 324 329 326 323
182 212 231 294 315 263 269 254 85 172 179 176 175 167 162 163 157 155 141 135 124 121 104 98 95 91 85 62 33 42 20 11 1 350 341 332 323 307 308 306 302 298 301 312 314 316 307 313 321
282 239 212 234 215 234 274 281 136 146 160 171 166 155 151 159 154 151 147 147 143 126 115 109 98 92 61 49 6 30 13 5 1 352 338 337 320 326 323 305 300 301 318 318 319 316 314 314 319